Weather History for Spirit of St Louis, MO

Change the Weather History Date:

Wednesday, February 13, 2013

  Actual Average Record
Temperature  
Mean Temperature 44 °F -  
Max Temperature 54 °F 44 °F 63 °F (2011)
Min Temperature 33 °F 26 °F 7 °F (2014)
Degree Days  
Heating Degree Days 22    
Moisture  
Dew Point 29 °F    
Average Humidity 60    
Maximum Humidity 82    
Minimum Humidity 34    
Precipitation  
Precipitation 0.00 in - - ()
Sea Level Pressure  
Sea Level Pressure 29.88 in    
Wind  
Wind Speed 5 mph (WSW)    
Max Wind Speed 17 mph    
Max Gust Speed 29 mph    
Visibility 10 miles    
Events      
Averages and records for this station are not official NWS values.
T = Trace of Precipitation, MM = Missing Value Source: NWS Daily Summary

Daily Weather History Graph

Daily Weather History Graph

Search for Another Location

Airport:

Trip Planner

Search our weather history database for the weather conditions in past years. The results will help you decide how hot, cold, wet, or windy it might be!

Date:

Astronomy

Feb. 13, 2013 Rise Set
Actual Time 6:55 AM CST 5:38 PM CST
Civil Twilight 6:28 AM CST 6:05 PM CST
Nautical Twilight 5:57 AM CST 6:37 PM CST
Astronomical Twilight 5:26 AM CST 7:07 PM CST
Moon 8:28 AM CST (2/13) 9:38 PM CST (2/13)
Length of Visible Light 11h 37m
Length of Day
10h 42m
Waxing Crescent, 14% of the Moon is Illuminated
Feb 13
Waxing Crescent
Feb 17
First Quarter
Feb 25
Full
Mar 4
Last Quarter
Mar 11
New

Hourly Weather History & Observations

Time (CST) Temp. Windchill Dew Point Humidity Pressure Visibility Wind Dir Wind Speed Gust Speed Precip Events Conditions
12:54 AM 37.9 °F - 28.0 °F 68% 29.95 in 10.0 mi Calm Calm - N/A   Overcast
1:54 AM 36.0 °F - 28.9 °F 76% 29.95 in 10.0 mi Calm Calm - N/A   Overcast
2:54 AM 36.0 °F 33.3 °F 28.9 °F 76% 29.93 in 10.0 mi WSW 3.5 mph - N/A   Overcast
3:54 AM 37.0 °F - 28.0 °F 70% 29.90 in 10.0 mi Calm Calm - N/A   Overcast
4:54 AM 35.1 °F 32.2 °F 28.9 °F 78% 29.89 in 10.0 mi WNW 3.5 mph - N/A   Overcast
5:54 AM 35.1 °F - 28.9 °F 78% 29.90 in 10.0 mi Calm Calm - N/A   Clear
6:54 AM 33.1 °F 28.7 °F 28.0 °F 82% 29.91 in 10.0 mi WSW 4.6 mph - N/A   Scattered Clouds
7:54 AM 34.0 °F 28.8 °F 28.0 °F 79% 29.92 in 10.0 mi SW 5.8 mph - N/A   Clear
8:54 AM 39.0 °F 32.3 °F 30.0 °F 70% 29.91 in 10.0 mi WSW 10.4 mph - N/A   Scattered Clouds
9:54 AM 43.0 °F 39.5 °F 30.0 °F 60% 29.90 in 10.0 mi WSW 5.8 mph - N/A   Scattered Clouds
10:54 AM 46.9 °F - 28.9 °F 50% 29.89 in 10.0 mi WSW 6.9 mph - N/A   Clear
11:54 AM 50.0 °F - 28.9 °F 44% 29.88 in 10.0 mi SW 9.2 mph - N/A   Clear
12:54 PM 52.0 °F - 27.0 °F 38% 29.84 in 10.0 mi West 13.8 mph 28.8 mph N/A   Clear
1:54 PM 53.1 °F - 26.1 °F 35% 29.83 in 10.0 mi WSW 17.3 mph 24.2 mph N/A   Partly Cloudy
2:54 PM 54.0 °F - 26.1 °F 34% 29.82 in 10.0 mi West 8.1 mph 16.1 mph N/A   Clear
3:54 PM 53.1 °F - 27.0 °F 37% 29.83 in 10.0 mi WSW 16.1 mph 19.6 mph N/A   Clear
4:54 PM 51.1 °F - 28.0 °F 41% 29.83 in 10.0 mi WSW 12.7 mph - N/A   Clear
5:54 PM 45.0 °F 41.2 °F 28.9 °F 53% 29.85 in 10.0 mi West 6.9 mph - N/A   Scattered Clouds
6:54 PM 39.9 °F 37.8 °F 28.0 °F 63% 29.86 in 10.0 mi SW 3.5 mph - N/A   Clear
7:54 PM 44.1 °F 38.6 °F 30.0 °F 58% 29.87 in 10.0 mi SW 10.4 mph - N/A   Clear
8:54 PM 43.0 °F 37.7 °F 30.9 °F 62% 29.88 in 10.0 mi WSW 9.2 mph - N/A   Clear
9:54 PM 42.1 °F 36.6 °F 30.9 °F 65% 29.88 in 10.0 mi WSW 9.2 mph - N/A   Clear
10:54 PM 41.0 °F 34.3 °F 30.9 °F 67% 29.87 in 10.0 mi SW 11.5 mph - N/A   Clear
11:54 PM 42.1 °F 36.1 °F 30.9 °F 65% 29.86 in 10.0 mi SW 10.4 mph - N/A   Clear